| time (UTC) | temp F | wind direction | speed MPH | gust MPH | rain 1hr in | rain 24hr in | rain mn in | humidity % | barometer mb |
| 20260502215029 | 55 | 221 | 6.0 | 9.0 | 0.00 | 0.04 | 0.04 | 40 | 1011.7 |
| 20260502214526 | 55 | 342 | 5.0 | 7.0 | 0.00 | 0.04 | 0.04 | 39 | 1011.4 |
| 20260502214023 | 56 | 317 | 2.0 | 3.0 | 0.00 | 0.04 | 0.04 | 41 | 1011.7 |
| 20260502213520 | 55 | 231 | 7.0 | 14.0 | 0.00 | 0.04 | 0.04 | 41 | 1011.7 |
| 20260502213018 | 55 | 199 | 8.0 | 12.0 | 0.00 | 0.04 | 0.04 | 40 | 1011.7 |
| 20260502212516 | 55 | 310 | 6.0 | 9.0 | 0.00 | 0.04 | 0.04 | 40 | 1011.4 |
| 20260502212014 | 56 | 357 | 5.0 | 9.0 | 0.00 | 0.04 | 0.04 | 39 | 1011.4 |
| 20260502211509 | 55 | 87 | 1.0 | 2.0 | 0.00 | 0.04 | 0.04 | 40 | 1011.0 |
| 20260502211007 | 55 | 217 | 5.0 | 9.0 | 0.00 | 0.04 | 0.04 | 42 | 1011.4 |
| 20260502210503 | 56 | 150 | 8.0 | 14.0 | 0.00 | 0.04 | 0.04 | 40 | 1011.4 |
| 20260502210000 | 56 | 109 | 0.0 | 2.0 | 0.00 | 0.04 | 0.04 | 40 | 1011.0 |
| 20260502205456 | 57 | 193 | 5.0 | 7.0 | 0.00 | 0.04 | 0.04 | 40 | 1011.0 |
| 20260502204954 | 56 | 116 | 1.0 | 3.0 | 0.00 | 0.04 | 0.04 | 40 | 1011.4 |
| 20260502204451 | 56 | 170 | 2.0 | 2.0 | 0.00 | 0.04 | 0.04 | 43 | 1011.4 |
| 20260502203949 | 56 | 75 | 1.0 | 2.0 | 0.00 | 0.04 | 0.04 | 39 | 1011.4 |
| 20260502203446 | 56 | 104 | 3.0 | 3.0 | 0.00 | 0.04 | 0.04 | 39 | 1011.4 |
| 20260502202942 | 56 | 183 | 3.0 | 5.0 | 0.00 | 0.04 | 0.04 | 40 | 1011.4 |
| 20260502202439 | 57 | 148 | 4.0 | 5.0 | 0.00 | 0.04 | 0.04 | 39 | 1011.4 |
| 20260502201937 | 57 | 131 | 3.0 | 5.0 | 0.00 | 0.04 | 0.04 | 37 | 1011.4 |
| 20260502201432 | 56 | 142 | 5.0 | 9.0 | 0.00 | 0.04 | 0.04 | 39 | 1011.7 |
| 20260502200929 | 56 | 300 | 7.0 | 10.0 | 0.00 | 0.04 | 0.04 | 39 | 1011.7 |
| 20260502200425 | 55 | 304 | 10.0 | 12.0 | 0.00 | 0.04 | 0.04 | 38 | 1011.4 |
| 20260502195923 | 56 | 240 | 7.0 | 12.0 | 0.00 | 0.04 | 0.04 | 38 | 1011.7 |
| 20260502195420 | 56 | 234 | 9.0 | 12.0 | 0.00 | 0.04 | 0.04 | 38 | 1011.4 |
| 20260502194916 | 56 | 18 | 1.0 | 3.0 | 0.00 | 0.04 | 0.04 | 40 | 1011.7 |
| 20260502194413 | 56 | 252 | 8.0 | 10.0 | 0.00 | 0.04 | 0.04 | 39 | 1011.7 |
| 20260502193909 | 56 | 192 | 5.0 | 7.0 | 0.00 | 0.04 | 0.04 | 39 | 1011.7 |
| 20260502193407 | 56 | 218 | 4.0 | 9.0 | 0.00 | 0.04 | 0.04 | 41 | 1011.7 |
| 20260502192901 | 57 | 297 | 10.0 | 15.0 | 0.00 | 0.04 | 0.04 | 38 | 1011.7 |
| 20260502192359 | 56 | 150 | 3.0 | 5.0 | 0.00 | 0.04 | 0.04 | 41 | 1012.0 |
| 20260502191856 | 57 | 183 | 6.0 | 10.0 | 0.00 | 0.04 | 0.04 | 39 | 1011.7 |
| 20260502191354 | 56 | 332 | 3.0 | 3.0 | 0.00 | 0.04 | 0.04 | 38 | 1012.0 |
| 20260502190851 | 56 | 249 | 13.0 | 21.0 | 0.00 | 0.04 | 0.04 | 39 | 1012.0 |
| 20260502190348 | 57 | 166 | 7.0 | 9.0 | 0.00 | 0.04 | 0.04 | 39 | 1012.0 |
| 20260502185844 | 57 | 89 | 3.0 | 3.0 | 0.00 | 0.04 | 0.04 | 38 | 1011.7 |
| 20260502185340 | 57 | 211 | 3.0 | 3.0 | 0.00 | 0.04 | 0.04 | 40 | 1012.0 |
| 20260502184837 | 56 | 220 | 7.0 | 12.0 | 0.00 | 0.04 | 0.04 | 38 | 1012.0 |
| 20260502184332 | 57 | 204 | 8.0 | 12.0 | 0.00 | 0.04 | 0.04 | 39 | 1012.4 |
| 20260502183829 | 57 | 90 | 2.0 | 2.0 | 0.00 | 0.04 | 0.04 | 45 | 1012.0 |
| 20260502183325 | 56 | 216 | 5.0 | 7.0 | 0.00 | 0.04 | 0.04 | 42 | 1011.7 |
| 20260502182820 | 56 | 100 | 0.0 | 2.0 | 0.00 | 0.04 | 0.04 | 43 | 1011.7 |
| 20260502182316 | 55 | 216 | 4.0 | 5.0 | 0.00 | 0.04 | 0.04 | 42 | 1011.7 |
| 20260502181813 | 55 | 171 | 1.0 | 2.0 | 0.00 | 0.04 | 0.04 | 43 | 1011.7 |
| 20260502181312 | 56 | 337 | 3.0 | 7.0 | 0.00 | 0.04 | 0.04 | 44 | 1012.0 |
| 20260502180809 | 57 | 212 | 6.0 | 7.0 | 0.00 | 0.04 | 0.04 | 41 | 1011.7 |
| 20260502180307 | 56 | 249 | 4.0 | 5.0 | 0.00 | 0.04 | 0.04 | 43 | 1012.0 |
| 20260502170226 | 53 | 60 | 1.0 | 2.0 | 0.00 | 0.04 | 0.04 | 54 | 1012.0 |
| 20260502164213 | 54 | 46 | 2.0 | 3.0 | 0.00 | 0.04 | 0.04 | 56 | 1012.0 |
| 20260502163708 | 53 | 163 | 2.0 | 5.0 | 0.00 | 0.04 | 0.04 | 56 | 1012.4 |
| 20260502163205 | 54 | 216 | 3.0 | 3.0 | 0.00 | 0.04 | 0.04 | 54 | 1012.4 |
| 20260502162702 | 54 | 68 | 0.0 | 0.0 | 0.00 | 0.04 | 0.04 | 55 | 1012.4 |
| 20260502162158 | 55 | 215 | 4.0 | 7.0 | 0.00 | 0.04 | 0.04 | 54 | 1012.4 |
| 20260502161656 | 54 | 95 | 1.0 | 2.0 | 0.00 | 0.04 | 0.04 | 56 | 1012.4 |
| 20260502161152 | 53 | 172 | 1.0 | 2.0 | 0.00 | 0.04 | 0.04 | 61 | 1012.4 |
| 20260502160651 | 52 | 205 | 3.0 | 5.0 | 0.00 | 0.04 | 0.04 | 59 | 1012.7 |
| 20260502160150 | 53 | 335 | 2.0 | 3.0 | 0.00 | 0.04 | 0.04 | 61 | 1012.7 |
| 20260502152109 | 51 | 215 | 5.0 | 7.0 | 0.00 | 0.04 | 0.04 | 62 | 1013.4 |
| 20260502151606 | 50 | 148 | 1.0 | 2.0 | 0.00 | 0.04 | 0.04 | 67 | 1013.0 |
| 20260502151104 | 50 | 117 | 0.0 | 0.0 | 0.00 | 0.04 | 0.04 | 68 | 1013.0 |
| 20260502150601 | 49 | 63 | 0.0 | 0.0 | 0.00 | 0.04 | 0.04 | 69 | 1013.0 |
| 20260502130446 | 45 | 138 | 2.0 | 2.0 | 0.00 | 0.04 | 0.04 | 84 | 1013.4 |
| 20260502123428 | 44 | 196 | 4.0 | 5.0 | 0.00 | 0.04 | 0.04 | 88 | 1013.4 |
| 20260502122926 | 44 | 224 | 3.0 | 5.0 | 0.00 | 0.04 | 0.04 | 89 | 1013.0 |
| 20260502122422 | 44 | 99 | 0.0 | 0.0 | 0.00 | 0.04 | 0.04 | 90 | 1013.0 |
| 20260502121920 | 43 | 239 | 4.0 | 7.0 | 0.00 | 0.04 | 0.04 | 90 | 1013.0 |
| 20260502121417 | 43 | 145 | 3.0 | 3.0 | 0.00 | 0.04 | 0.04 | 91 | 1013.4 |
| 20260502120914 | 43 | 228 | 3.0 | 5.0 | 0.00 | 0.04 | 0.04 | 92 | 1013.0 |
| 20260502120410 | 43 | 219 | 4.0 | 12.0 | 0.00 | 0.04 | 0.04 | 92 | 1013.4 |
| 20260502115908 | 43 | 108 | 0.0 | 2.0 | 0.00 | 0.04 | 0.04 | 93 | 1013.0 |
| 20260502115405 | 43 | 141 | 0.0 | 0.0 | 0.00 | 0.04 | 0.04 | 93 | 1013.4 |
| 20260502114901 | 43 | 338 | 4.0 | 5.0 | 0.00 | 0.04 | 0.04 | 94 | 1013.0 |
| 20260502114358 | 43 | 90 | 1.0 | 2.0 | 0.00 | 0.04 | 0.04 | 94 | 1013.0 |
| 20260502113855 | 43 | 42 | 2.0 | 2.0 | 0.00 | 0.04 | 0.04 | 94 | 1013.0 |
| 20260502113352 | 42 | 133 | 0.0 | 0.0 | 0.00 | 0.04 | 0.04 | 95 | 1013.0 |
| 20260502112851 | 42 | 28 | 4.0 | 5.0 | 0.00 | 0.04 | 0.04 | 95 | 1013.0 |
| 20260502112348 | 42 | 6 | 5.0 | 7.0 | 0.00 | 0.04 | 0.04 | 95 | 1012.7 |
| 20260502111845 | 42 | 115 | 1.0 | 2.0 | 0.00 | 0.04 | 0.04 | 95 | 1012.7 |
| 20260502111342 | 42 | 10 | 1.0 | 2.0 | 0.00 | 0.04 | 0.04 | 96 | 1012.4 |
| 20260502110840 | 43 | 238 | 4.0 | 5.0 | 0.00 | 0.04 | 0.04 | 96 | 1012.4 |
| 20260502110338 | 42 | 148 | 1.0 | 2.0 | 0.00 | 0.04 | 0.04 | 96 | 1012.7 |
| 20260502105835 | 42 | 138 | 3.0 | 3.0 | 0.00 | 0.04 | 0.04 | 96 | 1012.7 |
| 20260502105332 | 43 | 131 | 2.0 | 3.0 | 0.00 | 0.04 | 0.04 | 96 | 1012.7 |
| 20260502104830 | 43 | 238 | 4.0 | 7.0 | 0.00 | 0.04 | 0.04 | 96 | 1012.7 |
| 20260502104327 | 43 | 84 | 1.0 | 2.0 | 0.00 | 0.04 | 0.04 | 96 | 1012.4 |
| 20260502103824 | 43 | 241 | 4.0 | 5.0 | 0.00 | 0.04 | 0.04 | 96 | 1012.4 |
| 20260502103321 | 43 | 49 | 4.0 | 5.0 | 0.00 | 0.04 | 0.04 | 96 | 1012.0 |
| 20260502102818 | 43 | 118 | 2.0 | 3.0 | 0.00 | 0.04 | 0.04 | 96 | 1012.4 |
| 20260502102314 | 43 | 74 | 1.0 | 2.0 | 0.00 | 0.04 | 0.04 | 96 | 1012.0 |
| 20260502101813 | 43 | 43 | 3.0 | 3.0 | 0.00 | 0.04 | 0.04 | 96 | 1012.0 |
| 20260502101310 | 43 | 211 | 3.0 | 5.0 | 0.00 | 0.04 | 0.04 | 96 | 1012.0 |
| 20260502100808 | 44 | 132 | 2.0 | 3.0 | 0.00 | 0.04 | 0.04 | 97 | 1012.0 |
| 20260502100308 | 44 | 85 | 1.0 | 2.0 | 0.00 | 0.04 | 0.04 | 97 | 1011.7 |
| 20260502091241 | 47 | 100 | 0.0 | 0.0 | 0.00 | 0.04 | 0.04 | 97 | 1011.0 |
| 20260502090738 | 47 | 102 | 0.0 | 0.0 | 0.00 | 0.04 | 0.04 | 97 | 1011.4 |
| 20260502090235 | 47 | 106 | 0.0 | 0.0 | 0.00 | 0.04 | 0.04 | 97 | 1011.7 |
| 20260502071136 | 47 | 102 | 0.0 | 0.0 | 0.00 | 0.04 | 0.04 | 96 | 1011.7 |
| 20260502070634 | 47 | 104 | 0.0 | 0.0 | 0.00 | 0.04 | 0.04 | 96 | 1011.7 |
| 20260502070132 | 47 | 104 | 0.0 | 0.0 | 0.00 | 0.04 | 0.04 | 96 | 1011.7 |
| 20260502065630 | 47 | 105 | 0.0 | 0.0 | 0.01 | 0.04 | 0.04 | 96 | 1011.7 |
| 20260502065127 | 47 | 105 | 0.0 | 0.0 | 0.01 | 0.04 | 0.04 | 96 | 1012.0 |
| 20260502064626 | 47 | 104 | 0.0 | 0.0 | 0.01 | 0.04 | 0.04 | 96 | 1011.7 |
| 20260502064122 | 47 | 105 | 0.0 | 0.0 | 0.01 | 0.04 | 0.04 | 96 | 1011.7 |
| 20260502063620 | 47 | 104 | 0.0 | 0.0 | 0.01 | 0.04 | 0.04 | 96 | 1011.7 |
| 20260502063117 | 47 | 102 | 0.0 | 0.0 | 0.01 | 0.04 | 0.04 | 96 | 1011.7 |
| 20260502062614 | 47 | 101 | 0.0 | 0.0 | 0.01 | 0.04 | 0.04 | 96 | 1011.7 |
| 20260502062112 | 47 | 104 | 0.0 | 0.0 | 0.01 | 0.04 | 0.04 | 96 | 1012.0 |
| 20260502061610 | 47 | 102 | 0.0 | 0.0 | 0.01 | 0.04 | 0.04 | 95 | 1011.7 |
| 20260502061108 | 47 | 102 | 0.0 | 0.0 | 0.00 | 0.03 | 0.03 | 95 | 1011.7 |
| 20260502060607 | 47 | 106 | 0.0 | 0.0 | 0.00 | 0.03 | 0.03 | 95 | 1011.7 |
| 20260502060104 | 47 | 104 | 0.0 | 0.0 | 0.00 | 0.03 | 0.03 | 95 | 1011.7 |
| 20260502055602 | 47 | 102 | 0.0 | 0.0 | 0.01 | 0.03 | 0.03 | 95 | 1012.0 |
| 20260502055100 | 47 | 102 | 0.0 | 0.0 | 0.01 | 0.03 | 0.03 | 95 | 1012.0 |
| 20260502054559 | 47 | 101 | 0.0 | 0.0 | 0.01 | 0.03 | 0.03 | 95 | 1012.0 |
| 20260502054055 | 47 | 98 | 0.0 | 0.0 | 0.00 | 0.02 | 0.02 | 95 | 1012.4 |
| 20260502053552 | 47 | 104 | 0.0 | 0.0 | 0.00 | 0.02 | 0.02 | 95 | 1012.4 |
| 20260502053050 | 47 | 101 | 0.0 | 0.0 | 0.00 | 0.02 | 0.02 | 95 | 1012.0 |
| 20260502052549 | 48 | 94 | 0.0 | 0.0 | 0.00 | 0.02 | 0.02 | 95 | 1011.7 |
| 20260502052046 | 48 | 105 | 0.0 | 0.0 | 0.00 | 0.02 | 0.02 | 94 | 1012.0 |
| 20260502051544 | 48 | 101 | 0.0 | 0.0 | 0.00 | 0.02 | 0.02 | 95 | 1012.0 |
| 20260502051042 | 48 | 96 | 0.0 | 0.0 | 0.00 | 0.02 | 0.02 | 94 | 1012.4 |
| 20260502050537 | 48 | 105 | 0.0 | 0.0 | 0.00 | 0.02 | 0.02 | 94 | 1012.0 |
| 20260502050035 | 48 | 105 | 0.0 | 0.0 | 0.02 | 0.02 | 0.02 | 94 | 1012.4 |
| 20260502045531 | 48 | 105 | 0.0 | 0.0 | 0.02 | 0.02 | 0.02 | 94 | 1012.0 |
| 20260502045029 | 48 | 105 | 0.0 | 0.0 | 0.02 | 0.02 | 0.02 | 94 | 1012.4 |
| 20260502044525 | 48 | 106 | 0.0 | 0.0 | 0.02 | 0.02 | 0.02 | 93 | 1012.4 |
| 20260502044021 | 48 | 104 | 0.0 | 0.0 | 0.02 | 0.02 | 0.02 | 93 | 1012.4 |
| 20260502043519 | 48 | 104 | 0.0 | 0.0 | 0.02 | 0.02 | 0.02 | 93 | 1012.4 |
| 20260502043015 | 48 | 102 | 0.0 | 0.0 | 0.02 | 0.02 | 0.02 | 93 | 1012.4 |
| 20260502042510 | 48 | 104 | 0.0 | 0.0 | 0.02 | 0.02 | 0.02 | 93 | 1012.0 |
| 20260502042008 | 48 | 104 | 0.0 | 0.0 | 0.02 | 0.02 | 0.02 | 92 | 1012.0 |
| 20260502041506 | 48 | 104 | 0.0 | 0.0 | 0.02 | 0.02 | 0.02 | 92 | 1012.0 |
| 20260502041002 | 48 | 103 | 0.0 | 0.0 | 0.02 | 0.02 | 0.02 | 92 | 1012.0 |
| 20260502040459 | 48 | 104 | 0.0 | 0.0 | 0.01 | 0.01 | 0.01 | 91 | 1012.0 |
| 20260502035955 | 48 | 103 | 0.0 | 0.0 | 0.12 | 0.14 | 0.14 | 91 | 1012.4 |
| 20260502035451 | 48 | 104 | 0.0 | 0.0 | 0.11 | 0.13 | 0.13 | 91 | 1012.4 |
| 20260502034949 | 48 | 106 | 0.0 | 0.0 | 0.09 | 0.11 | 0.11 | 90 | 1012.4 |
| 20260502034448 | 48 | 104 | 0.0 | 0.0 | 0.07 | 0.09 | 0.09 | 90 | 1012.4 |
| 20260502033946 | 49 | 111 | 0.0 | 0.0 | 0.06 | 0.08 | 0.08 | 89 | 1012.7 |
| 20260502033443 | 49 | 95 | 0.0 | 0.0 | 0.05 | 0.07 | 0.07 | 88 | 1012.4 |
| 20260502032939 | 49 | 74 | 0.0 | 0.0 | 0.04 | 0.06 | 0.06 | 87 | 1012.4 |
| 20260502032436 | 49 | 112 | 0.0 | 0.0 | 0.03 | 0.05 | 0.05 | 86 | 1012.4 |
| 20260502031933 | 50 | 99 | 0.0 | 0.0 | 0.03 | 0.05 | 0.05 | 85 | 1012.0 |
| 20260502031432 | 50 | 101 | 0.0 | 0.0 | 0.02 | 0.04 | 0.04 | 83 | 1012.0 |
| 20260502030929 | 50 | 94 | 0.0 | 0.0 | 0.02 | 0.04 | 0.04 | 82 | 1012.4 |
| 20260502030428 | 50 | 100 | 0.0 | 0.0 | 0.01 | 0.03 | 0.03 | 80 | 1012.0 |
| 20260502025925 | 50 | 94 | 0.0 | 0.0 | 0.02 | 0.02 | 0.02 | 79 | 1012.0 |
| 20260502025422 | 51 | 97 | 0.0 | 2.0 | 0.01 | 0.01 | 0.01 | 78 | 1012.0 |
| 20260502024920 | 51 | 118 | 0.0 | 0.0 | 0.01 | 0.01 | 0.01 | 76 | 1012.0 |
| 20260502024418 | 51 | 125 | 0.0 | 0.0 | 0.01 | 0.01 | 0.01 | 74 | 1012.4 |
| 20260502023915 | 52 | 121 | 0.0 | 0.0 | 0.00 | 0.00 | 0.00 | 73 | 1012.0 |
| 20260502023413 | 52 | 135 | 0.0 | 0.0 | 0.00 | 0.00 | 0.00 | 71 | 1012.0 |
| 20260502022910 | 53 | 150 | 0.0 | 2.0 | 0.00 | 0.00 | 0.00 | 69 | 1012.4 |
| 20260502022406 | 53 | 165 | 0.0 | 0.0 | 0.00 | 0.00 | 0.00 | 65 | 1012.0 |
| 20260502021903 | 53 | 187 | 0.0 | 2.0 | 0.00 | 0.00 | 0.00 | 63 | 1012.0 |
| 20260502021401 | 54 | 174 | 1.0 | 2.0 | 0.00 | 0.00 | 0.00 | 61 | 1012.0 |
| 20260502020858 | 54 | 126 | 0.0 | 0.0 | 0.00 | 0.00 | 0.00 | 59 | 1012.0 |
| 20260502020356 | 54 | 120 | 0.0 | 0.0 | 0.00 | 0.00 | 0.00 | 58 | 1012.0 |
| 20260502015852 | 54 | 121 | 0.0 | 0.0 | 0.00 | 0.00 | 0.00 | 57 | 1012.0 |
| 20260502015349 | 54 | 80 | 1.0 | 2.0 | 0.00 | 0.00 | 0.00 | 57 | 1012.0 |
| 20260502014847 | 54 | 107 | 0.0 | 0.0 | 0.00 | 0.00 | 0.00 | 57 | 1012.0 |
| 20260502014343 | 54 | 122 | 0.0 | 0.0 | 0.00 | 0.00 | 0.00 | 57 | 1012.0 |
| 20260502013839 | 54 | 121 | 0.0 | 0.0 | 0.00 | 0.00 | 0.00 | 55 | 1011.7 |
| 20260502013335 | 55 | 122 | 0.0 | 0.0 | 0.00 | 0.00 | 0.00 | 56 | 1011.7 |
| 20260502012832 | 55 | 122 | 0.0 | 0.0 | 0.00 | 0.00 | 0.00 | 56 | 1011.7 |
| 20260502012330 | 55 | 122 | 0.0 | 0.0 | 0.00 | 0.00 | 0.00 | 56 | 1011.7 |
| 20260502011827 | 54 | 122 | 0.0 | 0.0 | 0.00 | 0.00 | 0.00 | 55 | 1011.7 |
| 20260502011323 | 54 | 122 | 0.0 | 0.0 | 0.00 | 0.00 | 0.00 | 57 | 1011.7 |
| 20260502010821 | 55 | 123 | 0.0 | 0.0 | 0.00 | 0.00 | 0.00 | 55 | 1011.4 |
| 20260502010317 | 55 | 124 | 0.0 | 0.0 | 0.00 | 0.00 | 0.00 | 54 | 1011.4 |
| 20260502005814 | 55 | 125 | 0.0 | 0.0 | 0.00 | 0.00 | 0.00 | 53 | 1011.4 |
| 20260502005312 | 55 | 125 | 0.0 | 0.0 | 0.00 | 0.00 | 0.00 | 53 | 1011.4 |
| 20260502004809 | 55 | 126 | 0.0 | 0.0 | 0.00 | 0.00 | 0.00 | 52 | 1011.7 |
| 20260502004305 | 55 | 127 | 0.0 | 0.0 | 0.00 | 0.00 | 0.00 | 52 | 1011.4 |
| 20260502003803 | 56 | 130 | 0.0 | 0.0 | 0.00 | 0.00 | 0.00 | 53 | 1011.7 |
| 20260502003259 | 56 | 92 | 0.0 | 0.0 | 0.00 | 0.00 | 0.00 | 52 | 1011.4 |
| 20260502002755 | 56 | 131 | 0.0 | 0.0 | 0.00 | 0.00 | 0.00 | 51 | 1011.4 |
| 20260502002253 | 56 | 76 | 0.0 | 2.0 | 0.00 | 0.00 | 0.00 | 50 | 1011.4 |
| 20260502001750 | 56 | 82 | 2.0 | 2.0 | 0.00 | 0.00 | 0.00 | 50 | 1011.4 |
| 20260502001248 | 56 | 82 | 0.0 | 0.0 | 0.00 | 0.00 | 0.00 | 50 | 1011.4 |
| 20260502000746 | 56 | 129 | 0.0 | 0.0 | 0.00 | 0.00 | 0.00 | 49 | 1011.4 |
| 20260502000244 | 56 | 135 | 0.0 | 0.0 | 0.00 | 0.00 | 0.00 | 48 | 1011.4 |
| 20260501235738 | 57 | 96 | 0.0 | 0.0 | 0.00 | 0.00 | 0.00 | 48 | 1011.0 |
| 20260501235235 | 57 | 190 | 3.0 | 3.0 | 0.00 | 0.00 | 0.00 | 48 | 1011.0 |
| 20260501234731 | 57 | 101 | 0.0 | 0.0 | 0.00 | 0.00 | 0.00 | 47 | 1011.0 |
| 20260501234228 | 57 | 101 | 0.0 | 0.0 | 0.00 | 0.00 | 0.00 | 46 | 1011.0 |
| 20260501233726 | 57 | 51 | 1.0 | 2.0 | 0.00 | 0.00 | 0.00 | 45 | 1011.0 |
| 20260501233223 | 57 | 112 | 0.0 | 0.0 | 0.00 | 0.00 | 0.00 | 45 | 1011.0 |
| 20260501232718 | 57 | 164 | 2.0 | 3.0 | 0.00 | 0.00 | 0.00 | 44 | 1010.7 |
| 20260501232216 | 58 | 131 | 0.0 | 0.0 | 0.00 | 0.00 | 0.00 | 44 | 1011.0 |
| 20260501231714 | 58 | 207 | 3.0 | 5.0 | 0.00 | 0.00 | 0.00 | 44 | 1010.7 |
| 20260501231212 | 58 | 127 | 0.0 | 2.0 | 0.00 | 0.00 | 0.00 | 44 | 1010.7 |
| 20260501230710 | 58 | 114 | 0.0 | 0.0 | 0.00 | 0.00 | 0.00 | 43 | 1010.3 |
| 20260501230208 | 58 | 100 | 0.0 | 0.0 | 0.00 | 0.00 | 0.00 | 43 | 1010.3 |
| 20260501225705 | 59 | 105 | 0.0 | 0.0 | 0.00 | 0.00 | 0.00 | 42 | 1010.3 |
| 20260501225202 | 59 | 24 | 4.0 | 5.0 | 0.00 | 0.00 | 0.00 | 42 | 1010.3 |
| 20260501224658 | 59 | 176 | 2.0 | 3.0 | 0.00 | 0.00 | 0.00 | 41 | 1010.7 |
| 20260501224156 | 60 | 161 | 3.0 | 3.0 | 0.00 | 0.00 | 0.00 | 42 | 1010.3 |
| 20260501223652 | 60 | 203 | 3.0 | 5.0 | 0.00 | 0.00 | 0.00 | 42 | 1010.3 |
| 20260501223148 | 60 | 79 | 3.0 | 5.0 | 0.00 | 0.00 | 0.00 | 41 | 1010.0 |
| 20260501222644 | 60 | 132 | 0.0 | 0.0 | 0.00 | 0.00 | 0.00 | 41 | 1010.0 |
| 20260501222142 | 60 | 100 | 1.0 | 2.0 | 0.00 | 0.00 | 0.00 | 41 | 1010.0 |
| 20260501221638 | 59 | 76 | 0.0 | 2.0 | 0.00 | 0.00 | 0.00 | 44 | 1010.3 |
| 20260501221137 | 59 | 96 | 0.0 | 2.0 | 0.00 | 0.00 | 0.00 | 41 | 1010.0 |
| 20260501220634 | 59 | 109 | 0.0 | 0.0 | 0.00 | 0.00 | 0.00 | 42 | 1010.3 |
| 20260501220130 | 59 | 154 | 2.0 | 3.0 | 0.00 | 0.00 | 0.00 | 42 | 1010.0 |
| 20260501215627 | 60 | 105 | 0.0 | 0.0 | 0.00 | 0.00 | 0.00 | 42 | 1010.0 |